Location: Hertford
(51.8000°N, 0.0667°W)
Time: 22:25:36
(UTC+00:00)

Lacrosse 4 Rocket - Pass Details

Date: 18 September 2020
Orbit: 543 x 615 km, 68.0° (Epoch: 21 October)

Event Time Altitude Azimuth Distance (km) Brightness Sun altitude
Rises 22:35:39 0° 319° (NW) 2,718 5.8 -34.3°
Reaches altitude 10° 22:37:57 10° 311° (NW) 1,824 4.6 -34.4°
Enters shadow 22:38:27 13° 308° (NW) 1,637 4.3 -34.4°
